Weather in Krasnyy Mayak

Russia / Vladimir Oblast     56°02′56″N   41°21′57″E
temp.,
°C
wind,
m/s
gust,
m/s
humid.,
%
clouds,
%
prec.,
mm/h
press.,
hPa
HPBL,
m
13 august, sat
sat1300:00+16wnw227275 0.0 102312
03:00+15nw2276100 0.0 102314
06:00+16nw1175100 0.0 102327
09:00+22nnw1155100 0.0 1023395
12:00+27nw114281 0.0 10221477
15:00+27nnw1139100 0.0 10211828
18:00+25ene1153100 0.0 102012
21:00+19ene2269100 0.0 102112
14 august, sun
sun1400:00+18e2271100 0.0 102133
03:00+17ese2277100 0.0 102116
06:00+17ese2278100 0.0 102147
09:00+23ese235686 0.0 1021475
12:00+27ese2242100 0.0 10201894
15:00+28e2237100 0.0 10202233
18:00+26e2250100 0.0 101939
21:00+20ene366599 0.0 1020112
15 august, mon
mon1500:00+19ese236789 0.0 102067
03:00+19se227183 0.0 102141
06:00+19se1170100 0.0 102234
09:00+21ese2365100 0.0 1022187
12:00+27ese2340100 0.0 10221560
15:00+28ene3339100 0.0 10221565
18:00+26ne3747100 0.0 1021335
21:00+22e2857100 0.0 1022197
16 august, tue
tue1600:00+21ese2661100 0.0 1023158
03:00+20se2361100 0.0 102458
06:00+20se2262100 0.0 102453
09:00+22ese2359100 0.0 1025222
12:00+26ese344412 0.0 1024960
15:00+28ese34335 0.0 10232267
18:00+26ene234317 0.0 1023103
21:00+21e3115797 0.0 1023269
17 august, wed
wed1700:00+21ese3856100 0.0 1024271
03:00+17ese247393 0.0 102487
06:00+17ese267393 0.0 1024138
09:00+23ese35485 0.0 1024516
12:00+27ese35335 0.0 10221861
15:00+29ese34285 0.0 10212425
18:00+26ene25415 0.0 1021143
21:00+20e365689 0.0 1021106